Weather History for Grand Island, NE

Change the Weather History Date:

Saturday, December 8, 2012

  Actual Average Record
Temperature  
Mean Temperature 28 °F 28 °F  
Max Temperature 36 °F 38 °F 73 °F (1970)
Min Temperature 19 °F 18 °F -15 °F (1927)
Degree Days  
Heating Degree Days 37 37  
Month to date heating degree days 179 287  
Since 1 July heating degree days 1379 1617  
Cooling Degree Days 0 0  
Month to date cooling degree days 0 0  
Year to date cooling degree days 1507 1034  
Moisture  
Dew Point 25 °F    
Average Humidity 88    
Maximum Humidity 100    
Minimum Humidity 75    
Precipitation  
Precipitation 0.00 in 0.03 in 0.59 in (2009)
Month to date precipitation T 0.20  
Year to date precipitation 9.89 26.23  
Snow  
Snow 0.00 in 0.20 in 9.70 in (2009)
Month to date snowfall 0.0 1.2  
Since 1 July snowfall 0.3 5.4  
Snow Depth 0.00 in    
Sea Level Pressure  
Sea Level Pressure 29.94 in    
Wind  
Wind Speed 8 mph (SSE)    
Max Wind Speed 18 mph    
Max Gust Speed 23 mph    
Visibility 4 miles    
Events Fog    
T = Trace of Precipitation, MM = Missing Value Source: NWS Daily Summary

Daily Weather History Graph

Daily Weather History Graph

Search for Another Location

Airport:

Trip Planner

Search our weather history database for the weather conditions in past years. The results will help you decide how hot, cold, wet, or windy it might be!

Date:

Astronomy

Dec. 08, 2012 Rise Set
Actual Time 7:45 AM CST 5:04 PM CST
Civil Twilight 7:14 AM CST 5:35 PM CST
Nautical Twilight 6:40 AM CST 6:10 PM CST
Astronomical Twilight 6:07 AM CST 6:43 PM CST
Moon 2:10 AM CST (12/8) 1:37 PM CST (12/8)
Length of Visible Light 10h 20m
Length of Day
9h 19m
Waning Crescent, 28% of the Moon is Illuminated
Dec 8
Waning Crescent
Dec 13
New
Dec 19
First Quarter
Dec 28
Full
Jan 4
Last Quarter

Hourly Weather History & Observations

Time (CST) Temp. Windchill Dew Point Humidity Pressure Visibility Wind Dir Wind Speed Gust Speed Precip Events Conditions
12:53 AM 32.0 °F 24.2 °F 28.0 °F 85% 30.04 in 10.0 mi North 9.2 mph - N/A   Overcast
1:43 AM 26.6 °F 19.1 °F 24.8 °F 93% 29.98 in 10.0 mi NNE 6.9 mph - N/A   Scattered Clouds
1:53 AM 25.0 °F 16.3 °F 21.9 °F 88% 30.03 in 8.0 mi North 8.1 mph - N/A   Clear
2:53 AM 23.0 °F 17.0 °F 21.9 °F 96% 30.03 in 6.0 mi NW 4.6 mph - N/A   Clear
3:53 AM 19.9 °F 14.9 °F 17.1 °F 89% 30.02 in 7.0 mi WNW 3.5 mph - N/A   Clear
4:03 AM 21.2 °F - 19.4 °F 93% 29.97 in 5.0 mi Calm Calm - N/A   Scattered Clouds
4:11 AM 19.4 °F - 19.4 °F 100% 29.97 in 4.0 mi Calm Calm - N/A   Mostly Cloudy
4:15 AM 19.4 °F - 17.6 °F 93% 29.97 in 1.0 mi Calm Calm - N/A   Mist
4:20 AM 19.4 °F - 19.4 °F 100% 29.96 in 0.2 mi Calm Calm - N/A Fog Light Freezing Fog
4:28 AM 19.4 °F - 19.4 °F 100% 29.96 in 0.2 mi Calm Calm - N/A Fog Light Freezing Fog
4:53 AM 19.9 °F - 19.0 °F 96% 30.01 in 0.2 mi Calm Calm - N/A Fog Light Freezing Fog
5:49 AM 21.2 °F - 21.2 °F 100% 29.95 in 0.5 mi Calm Calm - N/A Fog Light Freezing Fog
5:53 AM 21.9 °F - 21.9 °F 100% 30.01 in 0.5 mi Calm Calm - N/A Fog Light Freezing Fog
6:09 AM 23.0 °F - 21.2 °F 93% 29.95 in 0.2 mi Calm Calm - N/A Fog Light Freezing Fog
6:21 AM 23.0 °F - 23.0 °F 100% 29.96 in 0.8 mi Calm Calm - N/A   Mist
6:27 AM 24.8 °F - 23.0 °F 93% 29.95 in 2.0 mi Calm Calm - N/A   Overcast
6:34 AM 24.8 °F - 21.2 °F 86% 29.95 in 1.5 mi Calm Calm - N/A   Overcast
6:46 AM 24.8 °F - 23.0 °F 93% 29.96 in 0.5 mi Calm Calm - N/A Fog Light Freezing Fog
6:53 AM 24.1 °F - 24.1 °F 100% 30.01 in 0.8 mi Calm Calm - N/A   Mist
7:02 AM 24.8 °F - 24.8 °F 100% 29.95 in 2.0 mi Calm Calm - N/A   Overcast
7:19 AM 24.8 °F - 23.0 °F 93% 29.95 in 3.0 mi Calm Calm - N/A   Overcast
7:53 AM 26.1 °F 21.9 °F 24.1 °F 92% 30.01 in 5.0 mi South 3.5 mph - N/A   Overcast
8:53 AM 28.0 °F - 27.0 °F 96% 30.01 in 5.0 mi Calm Calm - N/A   Overcast
9:53 AM 28.9 °F 20.4 °F 27.0 °F 92% 30.01 in 6.0 mi SSE 9.2 mph - N/A   Overcast
10:53 AM 30.0 °F 20.0 °F 28.0 °F 92% 29.99 in 5.0 mi SSE 12.7 mph - N/A   Overcast
11:53 AM 32.0 °F 24.2 °F 28.9 °F 88% 29.96 in 5.0 mi SSE 9.2 mph - N/A   Overcast
12:46 PM 33.8 °F 25.3 °F 28.4 °F 81% 29.88 in 6.0 mi South 11.5 mph - N/A   Haze
12:53 PM 34.0 °F 26.0 °F 28.0 °F 79% 29.93 in 6.0 mi South 10.4 mph - N/A   Haze
1:53 PM 35.1 °F 26.4 °F 28.9 °F 78% 29.90 in 7.0 mi South 12.7 mph - N/A   Overcast
2:10 PM 35.6 °F 27.5 °F 28.4 °F 75% 29.84 in 7.0 mi South 11.5 mph - N/A   Overcast
2:53 PM 36.0 °F 28.0 °F 28.9 °F 76% 29.88 in 8.0 mi SSE 11.5 mph - N/A   Overcast
3:05 PM 35.6 °F 28.0 °F 28.4 °F 75% 29.82 in 4.0 mi SSE 10.4 mph - N/A   Haze
3:53 PM 36.0 °F 27.1 °F 28.9 °F 76% 29.86 in 4.0 mi SSE 13.8 mph - N/A   Haze
4:53 PM 35.1 °F 25.5 °F 28.9 °F 78% 29.86 in 7.0 mi SSE 15.0 mph - N/A   Overcast
5:53 PM 33.8 °F 27.0 °F 28.4 °F 81% 29.82 in 6.0 mi SSE 8.1 mph - N/A   Haze
6:53 PM 30.9 °F 26.2 °F 28.0 °F 89% 29.90 in 5.0 mi South 4.6 mph - N/A   Partly Cloudy
7:53 PM 32.0 °F 26.4 °F 28.9 °F 88% 29.88 in 5.0 mi SSE 5.8 mph - N/A   Scattered Clouds
8:53 PM 33.1 °F 24.4 °F 30.0 °F 89% 29.87 in 6.0 mi South 11.5 mph - N/A   Mostly Cloudy
9:53 PM 35.1 °F 25.9 °F 32.0 °F 89% 29.85 in 7.0 mi South 13.8 mph - N/A   Partly Cloudy
10:53 PM 36.0 °F 26.7 °F 33.1 °F 89% 29.85 in 8.0 mi South 15.0 mph - N/A   Overcast
11:53 PM 36.0 °F 27.1 °F 32.0 °F 86% 29.86 in 8.0 mi South 13.8 mph - N/A   Overcast